Datetime-UTC, Datetime-J2000, North, East, Up
2023/08/20 00:00:00, 745761600.00, 0.000000, 0.000000, 0.000000
2023/08/20 00:05:00, 745761900.00, 0.004600, 0.002100, -0.001200
2023/08/20 00:10:00, 745762200.00, 0.010800, 0.004800, -0.007200
2023/08/20 00:15:00, 745762500.00, 0.017200, 0.007900, -0.014500
2023/08/20 00:20:00, 745762800.00, 0.010500, -0.003900, -0.020100
2023/08/20 00:25:00, 745763100.00, 0.019300, -0.006200, -0.027900
2023/08/20 00:30:00, 745763400.00, 0.018300, -0.003000, -0.020400
2023/08/20 00:35:00, 745763700.00, -0.001700, 0.001200, 0.019300
2023/08/20 00:40:00, 745764000.00, -0.025700, -0.010700, 0.046500
2023/08/20 00:45:00, 745764300.00, -0.024400, -0.002200, 0.042300
2023/08/20 00:50:00, 745764600.00, -0.013900, -0.005100, 0.043800
2023/08/20 00:55:00, 745764900.00, -0.008400, -0.003000, 0.037300
2023/08/20 01:00:00, 745765200.00, -0.014100, 0.000300, 0.042500
2023/08/20 01:05:00, 745765500.00, 0.003900, 0.004700, 0.039900
2023/08/20 01:10:00, 745765800.00, -0.003500, 0.002200, 0.023100
2023/08/20 01:15:00, 745766100.00, -0.000300, 0.002600, 0.057200
2023/08/20 01:20:00, 745766400.00, 0.001000, 0.001800, 0.043300
2023/08/20 01:25:00, 745766700.00, -0.001300, 0.001400, 0.033900
2023/08/20 01:30:00, 745767000.00, 0.000000, -0.001500, 0.053200
2023/08/20 01:35:00, 745767300.00, -0.001400, 0.002100, 0.036900
2023/08/20 01:40:00, 745767600.00, -0.005400, -0.001100, 0.042300
2023/08/20 01:45:00, 745767900.00, -0.007700, 0.001900, 0.029400
2023/08/20 01:50:00, 745768200.00, 0.003400, 0.005800, 0.041700
2023/08/20 01:55:00, 745768500.00, -0.004300, 0.007900, 0.028300
2023/08/20 02:00:00, 745768800.00, -0.006500, 0.006700, 0.023100
2023/08/20 02:05:00, 745769100.00, -0.009400, 0.004100, 0.022500
2023/08/20 02:10:00, 745769400.00, -0.009400, 0.011100, 0.039700
2023/08/20 02:15:00, 745769700.00, -0.011100, 0.010400, 0.018000
2023/08/20 02:20:00, 745770000.00, -0.014500, 0.005100, 0.011700
2023/08/20 02:25:00, 745770300.00, -0.013300, 0.006200, 0.030900
2023/08/20 02:30:00, 745770600.00, 0.006300, 0.008200, 0.023600
2023/08/20 02:35:00, 745770900.00, -0.004100, 0.011400, 0.030900
2023/08/20 02:40:00, 745771200.00, -0.006200, 0.004300, 0.026000
2023/08/20 02:45:00, 745771500.00, -0.004600, 0.000900, 0.021300
2023/08/20 02:50:00, 745771800.00, -0.004900, 0.004500, 0.034100
2023/08/20 02:55:00, 745772100.00, 0.002100, -0.003200, 0.019300
2023/08/20 03:00:00, 745772400.00, -0.001600, -0.003300, 0.032300
2023/08/20 03:05:00, 745772700.00, 0.000500, -0.006400, 0.030100
2023/08/20 03:10:00, 745773000.00, 0.007200, -0.009100, 0.026800
2023/08/20 03:15:00, 745773300.00, 0.015800, -0.010700, 0.036000
2023/08/20 03:20:00, 745773600.00, 0.010600, 0.000900, 0.030000
2023/08/20 03:25:00, 745773900.00, 0.015600, -0.007100, 0.027400
2023/08/20 03:30:00, 745774200.00, 0.026000, -0.009200, 0.051300
2023/08/20 03:35:00, 745774500.00, 0.012300, -0.005400, 0.038800
2023/08/20 03:40:00, 745774800.00, -0.008900, -0.008700, 0.043700
2023/08/20 03:45:00, 745775100.00, 0.001200, -0.003100, 0.048100
2023/08/20 03:50:00, 745775400.00, -0.008000, -0.007600, 0.035700
2023/08/20 03:55:00, 745775700.00, -0.009200, -0.008700, 0.036100
2023/08/20 04:00:00, 745776000.00, 0.007500, -0.014700, 0.053400
2023/08/20 04:05:00, 745776300.00, 0.005300, -0.004300, 0.046300
2023/08/20 04:10:00, 745776600.00, 0.000800, -0.013600, 0.043400
2023/08/20 04:15:00, 745776900.00, 0.007400, -0.004300, 0.036900
2023/08/20 04:20:00, 745777200.00, 0.002600, -0.004700, 0.034300
2023/08/20 04:25:00, 745777500.00, -0.001600, -0.001900, 0.030800
2023/08/20 04:30:00, 745777800.00, 0.001200, 0.001300, 0.021900
2023/08/20 04:35:00, 745778100.00, -0.007500, 0.002000, 0.029500
2023/08/20 04:40:00, 745778400.00, -0.015600, -0.004100, 0.033800
2023/08/20 04:45:00, 745778700.00, -0.006100, -0.000100, 0.030600
2023/08/20 04:50:00, 745779000.00, -0.015400, -0.007400, 0.032900
2023/08/20 04:55:00, 745779300.00, -0.016500, -0.007900, 0.041900
2023/08/20 05:00:00, 745779600.00, -0.000300, -0.005300, 0.029200
2023/08/20 05:05:00, 745779900.00, -0.004600, -0.000200, 0.045700
2023/08/20 05:10:00, 745780200.00, -0.012400, 0.004500, 0.040700
2023/08/20 05:15:00, 745780500.00, -0.004200, -0.003900, 0.029200
2023/08/20 05:20:00, 745780800.00, -0.012700, -0.005600, 0.027000
2023/08/20 05:25:00, 745781100.00, -0.002200, 0.002600, 0.029900
2023/08/20 05:30:00, 745781400.00, -0.006000, 0.007100, 0.023600
2023/08/20 05:35:00, 745781700.00, 0.000900, 0.009600, 0.020900
2023/08/20 05:40:00, 745782000.00, -0.006300, 0.006200, 0.024100
2023/08/20 05:45:00, 745782300.00, -0.004700, 0.012800, 0.020400
2023/08/20 05:50:00, 745782600.00, -0.003500, 0.008300, 0.024900
2023/08/20 05:55:00, 745782900.00, -0.005800, 0.004100, 0.022900
2023/08/20 06:00:00, 745783200.00, -0.007500, 0.006500, 0.024200
2023/08/20 06:05:00, 745783500.00, -0.013400, 0.002700, 0.038000
2023/08/20 06:10:00, 745783800.00, -0.005700, 0.000000, 0.030300
2023/08/20 06:15:00, 745784100.00, 0.004000, -0.000500, 0.056600
2023/08/20 06:20:00, 745784400.00, 0.006100, 0.007600, 0.034200
2023/08/20 06:25:00, 745784700.00, 0.002200, 0.003100, 0.033900
2023/08/20 06:30:00, 745785000.00, -0.001800, 0.005900, 0.037500
2023/08/20 06:35:00, 745785300.00, 0.004500, 0.007100, 0.037300
2023/08/20 06:40:00, 745785600.00, -0.003700, 0.005100, 0.039800
2023/08/20 06:45:00, 745785900.00, 0.003500, 0.006200, 0.038000
2023/08/20 06:50:00, 745786200.00, -0.002200, 0.002100, 0.022500
2023/08/20 06:55:00, 745786500.00, 0.005100, 0.004900, 0.032600
2023/08/20 07:00:00, 745786800.00, -0.014400, -0.002100, 0.012100
2023/08/20 07:05:00, 745787100.00, -0.005700, 0.003000, 0.031300
2023/08/20 07:10:00, 745787400.00, -0.003200, 0.001600, 0.018300
2023/08/20 07:15:00, 745787700.00, -0.003900, 0.005400, 0.034400
2023/08/20 07:20:00, 745788000.00, -0.009300, -0.000100, 0.027600
2023/08/20 07:25:00, 745788300.00, -0.013100, -0.002000, 0.033500
2023/08/20 07:30:00, 745788600.00, -0.006800, 0.002900, 0.041500
2023/08/20 07:35:00, 745788900.00, -0.019100, -0.003700, 0.031500
2023/08/20 07:40:00, 745789200.00, -0.009900, 0.000500, 0.032500
2023/08/20 07:45:00, 745789500.00, -0.006100, 0.004100, 0.036200
2023/08/20 07:50:00, 745789800.00, -0.010100, 0.003500, 0.027600
2023/08/20 07:55:00, 745790100.00, -0.007700, 0.002300, 0.043100
2023/08/20 08:00:00, 745790400.00, 0.002300, 0.003800, 0.038100
2023/08/20 08:05:00, 745790700.00, -0.005300, 0.006800, 0.029000
2023/08/20 08:10:00, 745791000.00, 0.000500, 0.007200, 0.045300
2023/08/20 08:15:00, 745791300.00, -0.002600, 0.005800, 0.040200
2023/08/20 08:20:00, 745791600.00, -0.007400, 0.008300, 0.024500
2023/08/20 08:25:00, 745791900.00, 0.002100, 0.004300, 0.030700
2023/08/20 08:30:00, 745792200.00, -0.003000, 0.005800, 0.039800
2023/08/20 08:35:00, 745792500.00, -0.002900, 0.000400, 0.049300
2023/08/20 08:40:00, 745792800.00, 0.001900, 0.003800, 0.044000
2023/08/20 08:45:00, 745793100.00, 0.001500, 0.003400, 0.035800
2023/08/20 08:50:00, 745793400.00, -0.005100, 0.009400, 0.033400
2023/08/20 08:55:00, 745793700.00, -0.011600, 0.006300, 0.036400
2023/08/20 09:00:00, 745794000.00, -0.013000, 0.008100, 0.026400
2023/08/20 09:05:00, 745794300.00, -0.012800, 0.005100, 0.033500
2023/08/20 09:10:00, 745794600.00, -0.000500, 0.005900, 0.033200
2023/08/20 09:15:00, 745794900.00, -0.005000, 0.011100, 0.013800
2023/08/20 09:20:00, 745795200.00, -0.002200, 0.008700, 0.021800
2023/08/20 09:25:00, 745795500.00, -0.010900, 0.008800, 0.029500
2023/08/20 09:30:00, 745795800.00, -0.002800, 0.009500, 0.018800
2023/08/20 09:35:00, 745796100.00, -0.001000, 0.011500, 0.017700
2023/08/20 09:40:00, 745796400.00, -0.001300, 0.014600, 0.021800
2023/08/20 09:45:00, 745796700.00, 0.003800, 0.013900, 0.019200
2023/08/20 09:50:00, 745797000.00, -0.009800, 0.011800, 0.020800
2023/08/20 09:55:00, 745797300.00, 0.005800, 0.010100, 0.005900
2023/08/20 10:00:00, 745797600.00, -0.005400, 0.011500, 0.035700
2023/08/20 10:05:00, 745797900.00, -0.005600, 0.008700, 0.038200
2023/08/20 10:10:00, 745798200.00, -0.009900, 0.005000, 0.035100
2023/08/20 10:15:00, 745798500.00, -0.008800, 0.010000, 0.037200
2023/08/20 10:20:00, 745798800.00, -0.004100, 0.009000, 0.052200
2023/08/20 10:25:00, 745799100.00, -0.003100, 0.008100, 0.025400
2023/08/20 10:30:00, 745799400.00, -0.003800, 0.005000, 0.046000
2023/08/20 10:35:00, 745799700.00, -0.013400, 0.004000, 0.041000
2023/08/20 10:40:00, 745800000.00, -0.008600, 0.004600, 0.025800
2023/08/20 10:45:00, 745800300.00, -0.009300, 0.007000, 0.003800
2023/08/20 10:50:00, 745800600.00, -0.004200, 0.007000, 0.033500
2023/08/20 10:55:00, 745800900.00, -0.006000, 0.008700, 0.044000
2023/08/20 11:00:00, 745801200.00, -0.008000, 0.005600, 0.025400
2023/08/20 11:05:00, 745801500.00, -0.007200, 0.007000, 0.029800
2023/08/20 11:10:00, 745801800.00, -0.012100, 0.005700, 0.029900
2023/08/20 11:15:00, 745802100.00, -0.001600, 0.011300, 0.031300
2023/08/20 11:20:00, 745802400.00, -0.003200, 0.005900, 0.030000
2023/08/20 11:25:00, 745802700.00, -0.007700, 0.012400, 0.071200
2023/08/20 11:30:00, 745803000.00, -0.005200, 0.005300, 0.035700
2023/08/20 11:35:00, 745803300.00, -0.006400, 0.011100, 0.040300
2023/08/20 11:40:00, 745803600.00, -0.005100, 0.009400, 0.029300
2023/08/20 11:45:00, 745803900.00, -0.008200, 0.006800, 0.033200
2023/08/20 11:50:00, 745804200.00, -0.010700, 0.000300, 0.044200
2023/08/20 11:55:00, 745804500.00, -0.001000, -0.000500, 0.037500
2023/08/20 12:00:00, 745804800.00, -0.004800, 0.000700, 0.026500
2023/08/20 12:05:00, 745805100.00, -0.011100, 0.003200, 0.027200
2023/08/20 12:10:00, 745805400.00, -0.013600, 0.008600, 0.033200
2023/08/20 12:15:00, 745805700.00, -0.014100, 0.000600, 0.040800
2023/08/20 12:20:00, 745806000.00, -0.009600, 0.004300, 0.042900
2023/08/20 12:25:00, 745806300.00, -0.002100, 0.004300, 0.032900
2023/08/20 12:30:00, 745806600.00, -0.001000, 0.008300, 0.037300
2023/08/20 12:35:00, 745806900.00, -0.004500, 0.009600, 0.043100
2023/08/20 12:40:00, 745807200.00, -0.022200, 0.008900, 0.046700
2023/08/20 12:45:00, 745807500.00, -0.018100, 0.004500, 0.040800
2023/08/20 12:50:00, 745807800.00, -0.007800, 0.011600, 0.039300
2023/08/20 12:55:00, 745808100.00, -0.008600, 0.004000, 0.049600
2023/08/20 13:00:00, 745808400.00, 0.002900, 0.008300, 0.034700
2023/08/20 13:05:00, 745808700.00, -0.000700, 0.008900, 0.029600
2023/08/20 13:10:00, 745809000.00, -0.003700, 0.004600, 0.057200
2023/08/20 13:15:00, 745809300.00, 0.006800, 0.011400, 0.038100
2023/08/20 13:20:00, 745809600.00, 0.000100, 0.009500, 0.055700
2023/08/20 13:25:00, 745809900.00, 0.011300, 0.020900, 0.042600
2023/08/20 13:30:00, 745810200.00, 0.008700, 0.016400, 0.039500
2023/08/20 13:35:00, 745810500.00, 0.012100, 0.017900, 0.057100
2023/08/20 13:40:00, 745810800.00, 0.015000, 0.018700, 0.023500
2023/08/20 13:45:00, 745811100.00, 0.013800, 0.015200, 0.024400
2023/08/20 13:50:00, 745811400.00, 0.010000, 0.017600, 0.056000
2023/08/20 13:55:00, 745811700.00, 0.009700, 0.018000, 0.044600
2023/08/20 14:00:00, 745812000.00, 0.003200, 0.016200, 0.032000
2023/08/20 14:05:00, 745812300.00, 0.014900, 0.022500, 0.050100
2023/08/20 14:10:00, 745812600.00, 0.008700, 0.015000, 0.021700
2023/08/20 14:15:00, 745812900.00, 0.006700, 0.015600, 0.026900
2023/08/20 14:20:00, 745813200.00, 0.006200, 0.015300, 0.041100
2023/08/20 14:25:00, 745813500.00, 0.001000, 0.015900, 0.020200
2023/08/20 14:30:00, 745813800.00, 0.004700, 0.022800, 0.040500
2023/08/20 14:35:00, 745814100.00, 0.003100, 0.014000, 0.019400
2023/08/20 14:40:00, 745814400.00, 0.002400, 0.014800, 0.033300
2023/08/20 14:45:00, 745814700.00, 0.002000, 0.011100, 0.024000
2023/08/20 14:50:00, 745815000.00, -0.002100, 0.018100, 0.018800
2023/08/20 14:55:00, 745815300.00, 0.004100, 0.015700, 0.014000
2023/08/20 15:00:00, 745815600.00, 0.002900, 0.007600, 0.016400
2023/08/20 15:05:00, 745815900.00, -0.007900, 0.007700, 0.047800
2023/08/20 15:10:00, 745816200.00, -0.001700, 0.004800, 0.016400
2023/08/20 15:15:00, 745816500.00, -0.004600, 0.009000, 0.007800
2023/08/20 15:20:00, 745816800.00, -0.001900, 0.011800, 0.032700
2023/08/20 15:25:00, 745817100.00, -0.001600, 0.010600, 0.039800
2023/08/20 15:30:00, 745817400.00, -0.001800, 0.009900, 0.038800
2023/08/20 15:35:00, 745817700.00, 0.002100, 0.014000, 0.027600
2023/08/20 15:40:00, 745818000.00, -0.010200, 0.010200, 0.040200
2023/08/20 15:45:00, 745818300.00, -0.004700, 0.012700, 0.025300
2023/08/20 15:50:00, 745818600.00, -0.005600, 0.014200, 0.018400
2023/08/20 15:55:00, 745818900.00, -0.002000, 0.009600, 0.032900
2023/08/20 16:00:00, 745819200.00, 0.000600, 0.015500, 0.024100
2023/08/20 16:05:00, 745819500.00, -0.004200, 0.011800, 0.035500
2023/08/20 16:10:00, 745819800.00, -0.002600, 0.011500, 0.020800
2023/08/20 16:15:00, 745820100.00, -0.004800, 0.005100, 0.024300
2023/08/20 16:20:00, 745820400.00, 0.000800, 0.005100, 0.030200
2023/08/20 16:25:00, 745820700.00, -0.011900, 0.009100, 0.037900
2023/08/20 16:30:00, 745821000.00, -0.001700, 0.007500, 0.033200
2023/08/20 16:35:00, 745821300.00, -0.006900, 0.011600, 0.036800
2023/08/20 16:40:00, 745821600.00, -0.005600, 0.004700, 0.023900
2023/08/20 16:45:00, 745821900.00, -0.007300, 0.000400, 0.021300
2023/08/20 16:50:00, 745822200.00, -0.006900, 0.000400, 0.019100
2023/08/20 16:55:00, 745822500.00, -0.005400, 0.006100, 0.023300
2023/08/20 17:00:00, 745822800.00, -0.003400, 0.006100, 0.020000
2023/08/20 17:05:00, 745823100.00, -0.011800, 0.007600, 0.017100
2023/08/20 17:10:00, 745823400.00, -0.009800, 0.006000, 0.024500
2023/08/20 17:15:00, 745823700.00, -0.011200, 0.001100, 0.027100
2023/08/20 17:20:00, 745824000.00, -0.008800, 0.004700, 0.032700
2023/08/20 17:25:00, 745824300.00, -0.006600, 0.007400, 0.032200
2023/08/20 17:30:00, 745824600.00, -0.006800, 0.004900, 0.034400
2023/08/20 17:35:00, 745824900.00, -0.001500, 0.004400, 0.030900
2023/08/20 17:40:00, 745825200.00, -0.006100, 0.005200, 0.023800
2023/08/20 17:45:00, 745825500.00, -0.005600, 0.004400, 0.019800
2023/08/20 17:50:00, 745825800.00, -0.004600, 0.005700, 0.033100
2023/08/20 17:55:00, 745826100.00, -0.007000, 0.008400, 0.023200
2023/08/20 18:00:00, 745826400.00, 0.000700, 0.006700, 0.028700
2023/08/20 18:05:00, 745826700.00, -0.003400, 0.004500, 0.031600
2023/08/20 18:10:00, 745827000.00, 0.002800, 0.013000, 0.020500
2023/08/20 18:15:00, 745827300.00, 0.003200, 0.008600, 0.014600
2023/08/20 18:20:00, 745827600.00, 0.000100, 0.005500, 0.032000
2023/08/20 18:25:00, 745827900.00, -0.011100, 0.009200, 0.033900
2023/08/20 18:30:00, 745828200.00, -0.011700, 0.012500, 0.023000
2023/08/20 18:35:00, 745828500.00, -0.015500, 0.015100, 0.023000
2023/08/20 18:40:00, 745828800.00, -0.006300, 0.011300, 0.037900
2023/08/20 18:45:00, 745829100.00, -0.010400, 0.011000, 0.032700
2023/08/20 18:50:00, 745829400.00, -0.019000, 0.014500, 0.035000
2023/08/20 18:55:00, 745829700.00, -0.008100, 0.004000, 0.039000
2023/08/20 19:00:00, 745830000.00, -0.012800, 0.010600, 0.030200
2023/08/20 19:05:00, 745830300.00, -0.010800, 0.004800, 0.037200
2023/08/20 19:10:00, 745830600.00, -0.004700, 0.008400, 0.038900
2023/08/20 19:15:00, 745830900.00, -0.000500, 0.003200, 0.026400
2023/08/20 19:20:00, 745831200.00, -0.003600, 0.000800, 0.021000
2023/08/20 19:25:00, 745831500.00, -0.008900, 0.005200, 0.015200
2023/08/20 19:30:00, 745831800.00, 0.001600, 0.004200, 0.016700
2023/08/20 19:35:00, 745832100.00, -0.003000, -0.002400, 0.013000
2023/08/20 19:40:00, 745832400.00, 0.000300, -0.003800, 0.034800
2023/08/20 19:45:00, 745832700.00, -0.004400, -0.004400, 0.035300
2023/08/20 19:50:00, 745833000.00, -0.009900, -0.001600, 0.028400
2023/08/20 19:55:00, 745833300.00, -0.006000, 0.001600, 0.023100
2023/08/20 20:00:00, 745833600.00, -0.003700, -0.001400, 0.017200
2023/08/20 20:05:00, 745833900.00, -0.005600, -0.003000, 0.034800
2023/08/20 20:10:00, 745834200.00, -0.006900, -0.004100, 0.031100
2023/08/20 20:15:00, 745834500.00, 0.000500, -0.003400, 0.023200
2023/08/20 20:20:00, 745834800.00, -0.007600, -0.002800, 0.028700
2023/08/20 20:25:00, 745835100.00, -0.001300, -0.000600, 0.040600
2023/08/20 20:30:00, 745835400.00, 0.003300, -0.005700, 0.037700
2023/08/20 20:35:00, 745835700.00, -0.001600, 0.001300, 0.029400
2023/08/20 20:40:00, 745836000.00, 0.005300, -0.000800, 0.030800
2023/08/20 20:45:00, 745836300.00, 0.004800, -0.004600, 0.042100
2023/08/20 20:50:00, 745836600.00, -0.000200, -0.002000, 0.042500
2023/08/20 20:55:00, 745836900.00, -0.007500, 0.000700, 0.032800
2023/08/20 21:00:00, 745837200.00, -0.006900, 0.003000, 0.027100
2023/08/20 21:05:00, 745837500.00, 0.004400, -0.005600, 0.059500
2023/08/20 21:10:00, 745837800.00, -0.006800, 0.003200, 0.046000
2023/08/20 21:15:00, 745838100.00, -0.009500, 0.001400, 0.040200
2023/08/20 21:20:00, 745838400.00, -0.010800, 0.002000, 0.055600
2023/08/20 21:25:00, 745838700.00, -0.031400, -0.006000, 0.076800
2023/08/20 21:30:00, 745839000.00, -0.017700, -0.000700, 0.048600
2023/08/20 21:35:00, 745839300.00, -0.010400, 0.005600, 0.024900
2023/08/20 21:40:00, 745839600.00, -0.001300, 0.002800, 0.021200
2023/08/20 21:50:00, 745840200.00, -0.011800, 0.006100, 0.031700
2023/08/20 21:55:00, 745840500.00, -0.013300, 0.006700, 0.047200
2023/08/20 22:00:00, 745840800.00, -0.013600, 0.002500, 0.044500
2023/08/20 22:05:00, 745841100.00, -0.005500, 0.003800, 0.042500
2023/08/20 22:10:00, 745841400.00, -0.014000, 0.006100, 0.029100
2023/08/20 22:15:00, 745841700.00, -0.010700, 0.007600, 0.032200
2023/08/20 22:20:00, 745842000.00, -0.003300, 0.003200, 0.006300
2023/08/20 22:25:00, 745842300.00, -0.001800, -0.000900, 0.023400
2023/08/20 22:30:00, 745842600.00, -0.007700, 0.007300, 0.027100
2023/08/20 22:35:00, 745842900.00, -0.004000, 0.006700, 0.024900
2023/08/20 22:40:00, 745843200.00, -0.012900, 0.009800, 0.028000
2023/08/20 22:45:00, 745843500.00, -0.011300, 0.009700, 0.029000
2023/08/20 22:50:00, 745843800.00, -0.010800, 0.009100, 0.035700
2023/08/20 22:55:00, 745844100.00, -0.003600, 0.004900, 0.029400
2023/08/20 23:00:00, 745844400.00, -0.001800, 0.012700, 0.037900
2023/08/20 23:05:00, 745844700.00, -0.000700, 0.009600, 0.052000
2023/08/20 23:10:00, 745845000.00, -0.004600, 0.013200, 0.041400
2023/08/20 23:15:00, 745845300.00, 0.005800, 0.003500, 0.056400
2023/08/20 23:20:00, 745845600.00, 0.005400, 0.010200, 0.044500
2023/08/20 23:25:00, 745845900.00, 0.000300, 0.009700, 0.041400
2023/08/20 23:30:00, 745846200.00, 0.001200, 0.008200, 0.050500
2023/08/20 23:35:00, 745846500.00, 0.001500, 0.004000, 0.040900
2023/08/20 23:40:00, 745846800.00, -0.000300, 0.000600, 0.042200
2023/08/20 23:45:00, 745847100.00, 0.001500, -0.006000, 0.036200
2023/08/20 23:50:00, 745847400.00, 0.004600, 0.001300, 0.034100
2023/08/20 23:55:00, 745847700.00, 0.011800, 0.004900, 0.015600
